RYR47GB EPSY-EGSS

Flight info

Callsign RYR47GB
Flight time N/A
Altitude 38000
Route NIVON Y564 IXIXI L29 ALUKA DCT GARLU DCT NOGRO M40 RINIS
Aircraft B738/M-SDE2E3FGHIRWXY/LB1

Departure

Time 2026-05-07 13:30
Airport Olsztyn-Mazury Airport (EPSY)

Arrival

Time N/A
Airport London Stansted Airport (EGSS)
Time Latitude Longitude Altitude Speed Heading
2026-05-07 12:52 53.48777 20.94515 466 ft 0 kts 109°
2026-05-07 13:21 53.48778 20.94507 465 ft 4 kts 110°
2026-05-07 13:21 53.48788 20.94466 463 ft 4 kts 120°
2026-05-07 13:21 53.48804 20.94430 465 ft 4 kts 144°
2026-05-07 13:21 53.48825 20.94417 466 ft 2 kts 197°
2026-05-07 13:22 53.48826 20.94418 466 ft 1 kts 198°
2026-05-07 13:24 53.48823 20.94416 466 ft 2 kts 198°
2026-05-07 13:25 53.48796 20.94401 466 ft 6 kts 206°
2026-05-07 13:25 53.48783 20.94322 466 ft 8 kts 272°
2026-05-07 13:25 53.48788 20.94227 466 ft 10 kts 270°
2026-05-07 13:25 53.48745 20.94094 467 ft 18 kts 213°
2026-05-07 13:26 53.48600 20.94002 466 ft 26 kts 199°
2026-05-07 13:26 53.48412 20.93896 469 ft 30 kts 198°
2026-05-07 13:26 53.48216 20.93786 471 ft 29 kts 198°
2026-05-07 13:26 53.48031 20.93682 465 ft 27 kts 198°
2026-05-07 13:27 53.47840 20.93575 451 ft 30 kts 198°
2026-05-07 13:27 53.47637 20.93461 446 ft 30 kts 198°
2026-05-07 13:27 53.47445 20.93353 447 ft 28 kts 198°
2026-05-07 13:27 53.47264 20.93253 448 ft 26 kts 198°
2026-05-07 13:28 53.47156 20.93206 449 ft 8 kts 184°
2026-05-07 13:28 53.47138 20.93176 448 ft 1 kts 328°
2026-05-07 13:28 53.47145 20.93182 448 ft 0 kts 21°
2026-05-07 13:30 53.47230 20.93235 448 ft 41 kts 19°
2026-05-07 13:30 53.47735 20.93517 445 ft 110 kts 18°
2026-05-07 13:30 53.48624 20.94019 547 ft 152 kts 17°
2026-05-07 13:30 53.49642 20.94576 1205 ft 158 kts 17°
2026-05-07 13:31 53.50710 20.95161 1944 ft 162 kts 15°
2026-05-07 13:31 53.51796 20.95739 2646 ft 173 kts 16°
2026-05-07 13:31 53.53024 20.96346 3056 ft 194 kts
2026-05-07 13:31 53.54386 20.96110 3547 ft 203 kts 338°
2026-05-07 13:32 53.55696 20.95201 4139 ft 206 kts 326°
2026-05-07 13:32 53.56638 20.93343 4444 ft 220 kts 293°
2026-05-07 13:32 53.57339 20.90994 5115 ft 227 kts 296°
2026-05-07 13:32 53.58121 20.88669 5897 ft 233 kts 297°
2026-05-07 13:33 53.58965 20.86237 6047 ft 241 kts 298°
2026-05-07 13:33 53.59810 20.83857 7004 ft 234 kts 297°
2026-05-07 13:33 53.60570 20.81421 7673 ft 240 kts 284°
2026-05-07 13:33 53.60877 20.78528 7984 ft 261 kts 275°
2026-05-07 13:34 53.61104 20.75445 8668 ft 268 kts 275°
2026-05-07 13:34 53.61598 20.69138 10260 ft 276 kts 275°
2026-05-07 13:34 53.61871 20.65804 10500 ft 300 kts 276°
2026-05-07 13:35 53.62175 20.62186 10698 ft 323 kts 276°
2026-05-07 13:35 53.62503 20.58360 11162 ft 335 kts 276°
2026-05-07 13:35 53.62844 20.54454 11874 ft 339 kts 276°
2026-05-07 13:35 53.63190 20.50508 12586 ft 343 kts 276°
2026-05-07 13:36 53.63542 20.46510 13016 ft 348 kts 276°
2026-05-07 13:36 53.63897 20.42458 13826 ft 350 kts 276°
2026-05-07 13:36 53.64252 20.38396 14617 ft 351 kts 275°
2026-05-07 13:36 53.64609 20.34300 15366 ft 355 kts 275°
2026-05-07 13:37 53.64967 20.30160 16080 ft 359 kts 275°
2026-05-07 13:37 53.65328 20.25974 16786 ft 363 kts 275°
2026-05-07 13:37 53.65692 20.21734 17496 ft 367 kts 275°
2026-05-07 13:37 53.66057 20.17457 18198 ft 371 kts 274°
2026-05-07 13:38 53.66426 20.13125 18846 ft 375 kts 274°
2026-05-07 13:38 53.66798 20.08753 19473 ft 378 kts 274°
2026-05-07 13:38 53.67170 20.04355 20121 ft 380 kts 274°
2026-05-07 13:38 53.67543 19.99930 20758 ft 382 kts 274°
2026-05-07 13:39 53.67910 19.95534 21364 ft 385 kts 274°
2026-05-07 13:39 53.68283 19.91044 21923 ft 389 kts 274°
2026-05-07 13:39 53.68490 19.86490 22459 ft 388 kts 262°
2026-05-07 13:39 53.67928 19.82086 23130 ft 383 kts 250°
2026-05-07 13:40 53.67149 19.77785 23720 ft 385 kts 250°
2026-05-07 13:40 53.66387 19.73442 24187 ft 388 kts 251°
2026-05-07 13:40 53.65662 19.69056 24686 ft 390 kts 252°
2026-05-07 13:40 53.64970 19.64634 25192 ft 391 kts 252°
2026-05-07 13:41 53.64299 19.60183 25670 ft 393 kts 252°
2026-05-07 13:41 53.63638 19.55707 26137 ft 395 kts 252°
2026-05-07 13:41 53.62978 19.51186 26558 ft 398 kts 252°
2026-05-07 13:41 53.62318 19.46655 27000 ft 400 kts 252°
2026-05-07 13:42 53.61654 19.42101 27461 ft 401 kts 251°
2026-05-07 13:42 53.60986 19.37533 27900 ft 403 kts 251°
2026-05-07 13:42 53.60313 19.32947 28316 ft 404 kts 251°
2026-05-07 13:42 53.59635 19.28345 28722 ft 406 kts 251°
2026-05-07 13:43 53.58952 19.23721 29118 ft 408 kts 251°
2026-05-07 13:43 53.58264 19.19081 29521 ft 409 kts 251°
2026-05-07 13:43 53.57572 19.14429 29890 ft 411 kts 251°
2026-05-07 13:43 53.56875 19.09753 30239 ft 412 kts 250°
2026-05-07 13:44 53.56177 19.05081 30646 ft 411 kts 251°
2026-05-07 13:44 53.55482 19.00434 31115 ft 408 kts 251°
2026-05-07 13:44 53.54789 18.95821 31587 ft 407 kts 251°
2026-05-07 13:44 53.54093 18.91208 31909 ft 408 kts 251°
2026-05-07 13:45 53.53391 18.86570 32190 ft 410 kts 251°
2026-05-07 13:45 53.52689 18.81941 32579 ft 408 kts 251°
2026-05-07 13:45 53.51998 18.77324 33008 ft 407 kts 252°
2026-05-07 13:45 53.51391 18.72672 33354 ft 408 kts 253°
2026-05-07 13:46 53.50832 18.67987 33670 ft 409 kts 254°
2026-05-07 13:46 53.50289 18.63295 34031 ft 409 kts 254°
2026-05-07 13:46 53.49748 18.58613 34340 ft 408 kts 254°
2026-05-07 13:46 53.49200 18.53931 34554 ft 410 kts 254°
2026-05-07 13:47 53.48642 18.49226 34755 ft 412 kts 254°
2026-05-07 13:47 53.48076 18.44512 35022 ft 412 kts 254°
2026-05-07 13:47 53.47506 18.39794 35282 ft 412 kts 254°
2026-05-07 13:47 53.46932 18.35075 35526 ft 414 kts 254°
2026-05-07 13:48 53.46350 18.30322 35627 ft 418 kts 254°
2026-05-07 13:48 53.45760 18.25525 35802 ft 420 kts 254°
2026-05-07 13:48 53.45170 18.20736 36108 ft 419 kts 255°
2026-05-07 13:48 53.44580 18.15950 36384 ft 419 kts 255°
2026-05-07 13:49 53.43986 18.11166 36579 ft 420 kts 255°
2026-05-07 13:49 53.43388 18.06360 36780 ft 421 kts 255°
2026-05-07 13:49 53.42787 18.01549 37031 ft 421 kts 255°
2026-05-07 13:49 53.42185 17.96744 37258 ft 422 kts 255°
2026-05-07 13:50 53.41579 17.91924 37453 ft 423 kts 255°
2026-05-07 13:50 53.40969 17.87092 37663 ft 424 kts 255°
2026-05-07 13:50 53.40365 17.82326 37886 ft 424 kts 255°
2026-05-07 13:50 53.39742 17.77422 38009 ft 426 kts 255°
2026-05-07 13:51 53.39127 17.72609 38018 ft 430 kts 255°
2026-05-07 13:51 53.37871 17.62809 38011 ft 429 kts 255°
2026-05-07 13:52 53.36615 17.53068 38019 ft 426 kts 255°
2026-05-07 13:52 53.35358 17.43395 38015 ft 424 kts 255°
2026-05-07 13:53 53.34099 17.33775 38024 ft 423 kts 255°
2026-05-07 13:53 53.32835 17.24180 38015 ft 422 kts 255°
2026-05-07 13:54 53.31564 17.14600 38035 ft 423 kts 255°
2026-05-07 13:54 53.30267 17.04894 38038 ft 432 kts 255°
2026-05-07 13:55 53.28945 16.95035 38017 ft 436 kts 255°
2026-05-07 13:55 53.27606 16.85145 38023 ft 437 kts 255°
2026-05-07 13:56 53.26253 16.75239 38022 ft 437 kts 254°
2026-05-07 13:56 53.24896 16.65348 38023 ft 436 kts 254°
2026-05-07 13:57 53.23531 16.55496 38036 ft 435 kts 254°
2026-05-07 13:57 53.22155 16.45670 38025 ft 434 kts 254°
2026-05-07 13:58 53.20776 16.35872 38030 ft 433 kts 254°
2026-05-07 13:58 53.19395 16.26110 38030 ft 432 kts 254°
2026-05-07 13:59 53.18009 16.16376 38028 ft 431 kts 254°
2026-05-07 13:59 53.16626 16.06727 38032 ft 431 kts 253°
2026-05-07 14:00 53.15217 15.96957 38036 ft 431 kts 253°
2026-05-07 14:00 53.13812 15.87256 38036 ft 431 kts 253°
2026-05-07 14:01 53.12405 15.77622 38041 ft 431 kts 253°
2026-05-07 14:01 53.10979 15.67911 38038 ft 432 kts 253°
2026-05-07 14:02 53.09543 15.58181 38029 ft 433 kts 253°
2026-05-07 14:02 53.08097 15.48438 38036 ft 434 kts 253°
2026-05-07 14:03 53.06642 15.38688 38049 ft 435 kts 253°
2026-05-07 14:03 53.05175 15.28921 38041 ft 436 kts 253°
2026-05-07 14:04 53.03948 15.20798 38032 ft 436 kts 253°
2026-05-07 14:04 53.02462 15.11021 38030 ft 437 kts 253°
2026-05-07 14:05 53.00968 15.01243 38032 ft 437 kts 253°
2026-05-07 14:05 52.99466 14.91473 38035 ft 437 kts 253°
2026-05-07 14:06 52.97957 14.81712 38041 ft 437 kts 253°
2026-05-07 14:06 52.96440 14.71966 38036 ft 436 kts 253°
2026-05-07 14:07 52.94915 14.62220 38041 ft 436 kts 253°
2026-05-07 14:07 52.93384 14.52496 38046 ft 436 kts 253°
2026-05-07 14:08 52.91848 14.42783 38037 ft 435 kts 252°
2026-05-07 14:08 52.90313 14.33084 38037 ft 436 kts 254°
2026-05-07 14:09 52.89737 14.23070 38062 ft 439 kts 266°
2026-05-07 14:09 52.89689 14.12942 38044 ft 440 kts 267°
2026-05-07 14:10 52.89626 14.02817 38046 ft 440 kts 266°
2026-05-07 14:10 52.89527 13.92698 38051 ft 439 kts 266°
2026-05-07 14:11 52.89406 13.82573 38053 ft 440 kts 266°
2026-05-07 14:11 52.89274 13.72513 38057 ft 440 kts 266°
2026-05-07 14:12 52.89132 13.62371 38045 ft 441 kts 266°
2026-05-07 14:12 52.88983 13.52228 38051 ft 441 kts 266°
2026-05-07 14:13 52.88825 13.42074 38055 ft 441 kts 266°
2026-05-07 14:13 52.88659 13.31927 38052 ft 441 kts 266°
2026-05-07 14:14 52.88484 13.21766 38067 ft 441 kts 266°
2026-05-07 14:14 52.88299 13.11608 38056 ft 442 kts 266°
2026-05-07 14:15 52.88106 13.01429 38054 ft 442 kts 266°
2026-05-07 14:15 52.87905 12.91244 38055 ft 443 kts 266°
2026-05-07 14:16 52.87694 12.81054 38056 ft 443 kts 266°
2026-05-07 14:16 52.87474 12.70860 38067 ft 443 kts 266°
2026-05-07 14:17 52.87246 12.60659 38049 ft 444 kts 266°
2026-05-07 14:17 52.87008 12.50443 38049 ft 444 kts 266°
2026-05-07 14:18 52.86762 12.40230 38051 ft 444 kts 266°
2026-05-07 14:18 52.86507 12.30014 38053 ft 444 kts 266°
2026-05-07 14:19 52.86243 12.19803 38052 ft 444 kts 266°
2026-05-07 14:19 52.85972 12.09654 38051 ft 444 kts 266°
2026-05-07 14:20 52.85691 11.99442 38052 ft 444 kts 266°
2026-05-07 14:20 52.85401 11.89237 38054 ft 444 kts 266°
2026-05-07 14:21 52.85102 11.79028 38055 ft 444 kts 265°
2026-05-07 14:21 52.84795 11.68832 38058 ft 444 kts 265°
2026-05-07 14:22 52.84478 11.58627 38057 ft 444 kts 265°
2026-05-07 14:22 52.84154 11.48434 38062 ft 444 kts 265°
2026-05-07 14:23 52.83820 11.38234 38065 ft 444 kts 265°
2026-05-07 14:23 52.83479 11.28045 38064 ft 444 kts 265°
2026-05-07 14:24 52.83129 11.17844 38063 ft 444 kts 265°
2026-05-07 14:24 52.82691 11.07663 38068 ft 444 kts 263°
2026-05-07 14:25 52.81944 10.97548 38066 ft 443 kts 261°
2026-05-07 14:25 52.81131 10.87437 38069 ft 444 kts 261°
2026-05-07 14:26 52.80333 10.77329 38070 ft 444 kts 261°
2026-05-07 14:26 52.79547 10.67211 38076 ft 444 kts 262°
2026-05-07 14:27 52.78766 10.57164 38079 ft 444 kts 262°
2026-05-07 14:27 52.77971 10.47041 38071 ft 444 kts 262°
2026-05-07 14:28 52.77166 10.36920 38079 ft 444 kts 261°
2026-05-07 14:28 52.76353 10.26801 38074 ft 445 kts 261°
2026-05-07 14:29 52.75530 10.16684 38078 ft 445 kts 261°
2026-05-07 14:29 52.74699 10.06570 38078 ft 445 kts 261°
2026-05-07 14:30 52.73860 9.96467 38070 ft 444 kts 261°
2026-05-07 14:30 52.73012 9.86366 38076 ft 444 kts 261°
2026-05-07 14:31 52.72158 9.76290 38073 ft 444 kts 261°
2026-05-07 14:31 52.71294 9.66216 38076 ft 443 kts 261°
2026-05-07 14:32 52.70422 9.56148 38085 ft 443 kts 261°
2026-05-07 14:32 52.69549 9.46160 38073 ft 443 kts 261°
2026-05-07 14:33 52.68660 9.36105 38077 ft 443 kts 261°
2026-05-07 14:33 52.67763 9.26041 38068 ft 444 kts 261°
2026-05-07 14:34 52.66856 9.15978 38072 ft 444 kts 261°
2026-05-07 14:34 52.65940 9.05921 38081 ft 444 kts 261°
2026-05-07 14:35 52.65016 8.95857 38079 ft 445 kts 261°
2026-05-07 14:35 52.64081 8.85779 38069 ft 445 kts 261°
2026-05-07 14:36 52.63139 8.75718 38082 ft 445 kts 260°
2026-05-07 14:36 52.62188 8.65666 38080 ft 444 kts 260°
2026-05-07 14:37 52.61231 8.55629 38091 ft 444 kts 260°
2026-05-07 14:37 52.59778 8.40586 38103 ft 444 kts 260°
2026-05-07 14:38 52.58801 8.30580 38116 ft 444 kts 260°
2026-05-07 14:38 52.57813 8.20555 38107 ft 444 kts 260°
2026-05-07 14:39 52.56817 8.10532 38093 ft 444 kts 260°
2026-05-07 14:39 52.55814 8.00530 38098 ft 443 kts 259°
2026-05-07 14:40 52.54804 7.90551 38082 ft 443 kts 260°
2026-05-07 14:40 52.53787 7.80591 38084 ft 442 kts 259°
2026-05-07 14:41 52.52763 7.70642 38076 ft 442 kts 259°
2026-05-07 14:41 52.51728 7.60685 38080 ft 444 kts 259°
2026-05-07 14:42 52.50680 7.50680 38062 ft 445 kts 259°
2026-05-07 14:42 52.49625 7.40693 38068 ft 444 kts 259°
2026-05-07 14:43 52.48563 7.30719 38064 ft 443 kts 259°
2026-05-07 14:43 52.47494 7.20773 38068 ft 443 kts 259°
2026-05-07 14:44 52.46417 7.10826 38056 ft 443 kts 259°
2026-05-07 14:44 52.45333 7.00897 38055 ft 442 kts 259°
2026-05-07 14:45 52.44241 6.90980 38061 ft 442 kts 259°
2026-05-07 14:45 52.43143 6.81084 38057 ft 442 kts 259°
2026-05-07 14:46 52.42032 6.71163 38060 ft 444 kts 259°
2026-05-07 14:46 52.40915 6.61257 38046 ft 445 kts 259°
2026-05-07 14:47 52.39783 6.51296 38039 ft 445 kts 259°
2026-05-07 14:47 52.38645 6.41362 38053 ft 443 kts 258°
2026-05-07 14:48 52.37501 6.31459 38045 ft 443 kts 258°
2026-05-07 14:48 52.36351 6.21570 38050 ft 442 kts 258°
2026-05-07 14:49 52.35203 6.11782 38018 ft 431 kts 258°
2026-05-07 14:49 52.34075 6.02229 38045 ft 426 kts 258°
2026-05-07 14:50 52.32946 5.92739 38064 ft 425 kts 258°
2026-05-07 14:50 52.31812 5.83281 38053 ft 424 kts 258°
2026-05-07 14:51 52.30671 5.73829 38066 ft 424 kts 258°
2026-05-07 14:51 52.29716 5.65974 38066 ft 424 kts 258°
2026-05-07 14:52 52.28559 5.56509 38076 ft 425 kts 258°
2026-05-07 14:52 52.27392 5.47037 38076 ft 426 kts 258°
2026-05-07 14:53 52.26216 5.37551 38070 ft 427 kts 258°
2026-05-07 14:53 52.25031 5.28062 38079 ft 427 kts 257°
2026-05-07 14:54 52.23836 5.18565 38076 ft 428 kts 257°
2026-05-07 14:54 52.22382 5.09168 38063 ft 427 kts 249°
2026-05-07 14:55 52.19727 5.00531 38078 ft 427 kts 236°
2026-05-07 14:55 52.16259 4.92694 38082 ft 427 kts 233°
2026-05-07 14:56 52.12675 4.84987 38074 ft 427 kts 232°
2026-05-07 14:56 52.09076 4.77307 38073 ft 427 kts 232°
2026-05-07 14:57 52.05473 4.69648 38063 ft 426 kts 232°
2026-05-07 14:57 52.02034 4.61819 38057 ft 426 kts 244°
2026-05-07 14:58 52.01027 4.57318 38088 ft 426 kts 256°
2026-05-07 14:58 52.00585 4.52566 38078 ft 427 kts 267°